TimeCDT,TemperatureF,Dew PointF,Humidity,Sea Level PressureIn,VisibilityMPH,Wind Direction,Wind SpeedMPH,Gust SpeedMPH,PrecipitationIn,Events,Conditions,WindDirDegrees,DateUTC
12:15 AM,76.6,76.6,100,29.96,7.0,South,4.6,-,N/A,,Clear,180,2013-07-25 05:15:00
12:35 AM,76.5,76.5,100,29.97,7.0,South,5.8,-,N/A,,Clear,190,2013-07-25 05:35:00
12:55 AM,76.5,76.5,100,29.97,7.0,SSW,3.5,-,N/A,,Clear,200,2013-07-25 05:55:00
1:15 AM,75.9,75.9,100,29.97,7.0,South,3.5,-,N/A,,Clear,180,2013-07-25 06:15:00
1:35 AM,75.6,75.6,100,29.97,7.0,South,4.6,-,N/A,,Clear,190,2013-07-25 06:35:00
1:55 AM,75.4,75.4,100,29.97,7.0,SSW,3.5,-,N/A,,Clear,200,2013-07-25 06:55:00
2:15 AM,74.8,74.8,100,29.97,7.0,South,4.6,-,N/A,,Clear,190,2013-07-25 07:15:00
2:35 AM,75.2,75.2,100,29.97,7.0,SSW,5.8,-,N/A,,Clear,200,2013-07-25 07:35:00
2:55 AM,75.7,75.7,100,29.97,7.0,SSW,5.8,-,N/A,,Clear,200,2013-07-25 07:55:00
3:15 AM,76.1,76.1,100,29.97,7.0,South,4.6,-,N/A,,Clear,190,2013-07-25 08:15:00
3:35 AM,75.6,75.6,100,29.97,7.0,South,5.8,-,N/A,,Clear,180,2013-07-25 08:35:00
3:55 AM,75.4,75.4,100,29.97,7.0,SSW,4.6,-,N/A,,Clear,200,2013-07-25 08:55:00
4:15 AM,75.7,75.7,100,29.97,7.0,SSW,5.8,-,N/A,,Clear,200,2013-07-25 09:15:00
4:35 AM,76.1,76.1,100,29.97,7.0,South,3.5,-,N/A,,Clear,190,2013-07-25 09:35:00
4:55 AM,75.4,75.4,100,29.97,7.0,South,5.8,-,N/A,,Clear,190,2013-07-25 09:55:00
5:15 AM,75.0,75.0,100,29.98,7.0,SSW,4.6,-,N/A,,Clear,200,2013-07-25 10:15:00
5:35 AM,75.2,75.2,100,29.98,7.0,SSW,4.6,-,N/A,,Clear,200,2013-07-25 10:35:00
5:55 AM,75.2,75.2,100,29.98,7.0,Calm,Calm,-,N/A,,Clear,0,2013-07-25 10:55:00
6:15 AM,75.4,75.4,100,30.00,7.0,Calm,Calm,-,N/A,,Clear,0,2013-07-25 11:15:00
6:35 AM,74.3,74.3,100,30.01,5.0,Calm,Calm,-,N/A,,Haze,0,2013-07-25 11:35:00
6:55 AM,-9999,-9999,N/A,30.01,5.0,Calm,Calm,-,N/A,,Haze,0,2013-07-25 11:55:00
7:15 AM,-9999,-9999,N/A,30.01,7.0,Calm,Calm,-,N/A,,Clear,0,2013-07-25 12:15:00
7:35 AM,-9999,-9999,N/A,30.01,4.0,Calm,Calm,-,N/A,,Haze,0,2013-07-25 12:35:00
7:55 AM,-9999,-9999,N/A,30.01,7.0,Calm,Calm,-,N/A,,Clear,0,2013-07-25 12:55:00
8:15 AM,79.2,79.2,100,30.02,7.0,Calm,Calm,-,N/A,,Clear,0,2013-07-25 13:15:00
8:35 AM,81.0,81.0,100,30.01,7.0,Calm,Calm,-,N/A,,Clear,0,2013-07-25 13:35:00
8:55 AM,82.6,81.5,97,30.01,10.0,SW,4.6,-,N/A,,Clear,230,2013-07-25 13:55:00
9:15 AM,84.0,81.1,91,30.02,10.0,WSW,4.6,-,N/A,,Clear,250,2013-07-25 14:15:00
9:35 AM,84.9,78.3,80,30.02,10.0,SW,8.1,-,N/A,,Clear,230,2013-07-25 14:35:00
9:55 AM,85.3,76.6,75,30.03,10.0,Calm,Calm,-,N/A,,Scattered Clouds,0,2013-07-25 14:55:00
10:15 AM,86.7,76.6,72,30.03,10.0,SSW,5.8,-,N/A,,Mostly Cloudy,200,2013-07-25 15:15:00
10:35 AM,87.8,75.9,68,30.03,10.0,SSW,5.8,-,N/A,,Scattered Clouds,210,2013-07-25 15:35:00
10:55 AM,88.7,75.4,65,30.03,10.0,WSW,5.8,-,N/A,,Mostly Cloudy,250,2013-07-25 15:55:00
11:15 AM,88.5,74.5,63,30.03,10.0,Calm,Calm,-,N/A,,Mostly Cloudy,0,2013-07-25 16:15:00
11:35 AM,90.3,74.8,60,30.03,10.0,West,6.9,-,N/A,,Scattered Clouds,270,2013-07-25 16:35:00
11:55 AM,91.0,73.4,56,30.03,10.0,WSW,6.9,-,N/A,,Scattered Clouds,240,2013-07-25 16:55:00
12:15 PM,91.4,71.8,52,30.03,10.0,SW,5.8,-,N/A,,Scattered Clouds,230,2013-07-25 17:15:00
12:35 PM,92.3,71.6,51,30.03,10.0,Calm,Calm,-,N/A,,Scattered Clouds,0,2013-07-25 17:35:00
12:55 PM,92.8,70.7,48,30.03,10.0,WSW,6.9,-,N/A,,Scattered Clouds,250,2013-07-25 17:55:00
1:15 PM,93.6,70.0,46,30.02,10.0,WNW,4.6,-,N/A,,Clear,290,2013-07-25 18:15:00
1:35 PM,94.1,69.3,44,30.02,10.0,West,5.8,-,N/A,,Scattered Clouds,280,2013-07-25 18:35:00
1:55 PM,94.8,70.3,45,30.02,10.0,SSE,3.5,-,N/A,,Clear,160,2013-07-25 18:55:00
2:15 PM,95.0,72.0,47,30.01,10.0,SSW,5.8,-,N/A,,Scattered Clouds,200,2013-07-25 19:15:00
2:35 PM,95.4,70.5,44,30.01,10.0,ESE,3.5,-,N/A,,Scattered Clouds,110,2013-07-25 19:35:00
2:55 PM,95.5,73.8,49,30.01,10.0,SSE,11.5,17.3,N/A,,Scattered Clouds,160,2013-07-25 19:55:00
3:15 PM,94.3,77.0,57,30.00,10.0,SSE,11.5,-,N/A,,Clear,150,2013-07-25 20:15:00
3:35 PM,93.0,76.5,58,30.00,10.0,SSE,9.2,-,N/A,,Scattered Clouds,160,2013-07-25 20:35:00
3:55 PM,93.9,76.5,57,30.00,10.0,South,9.2,-,N/A,,Scattered Clouds,180,2013-07-25 20:55:00
4:15 PM,94.1,76.6,57,29.99,10.0,South,9.2,-,N/A,,Scattered Clouds,190,2013-07-25 21:15:00
4:35 PM,93.7,76.3,57,29.99,10.0,South,10.4,16.1,N/A,,Clear,170,2013-07-25 21:35:00
4:55 PM,93.4,75.7,56,29.99,10.0,South,9.2,-,N/A,,Clear,170,2013-07-25 21:55:00
5:15 PM,93.2,75.4,56,29.99,10.0,SSE,9.2,-,N/A,,Clear,150,2013-07-25 22:15:00
5:35 PM,92.8,74.7,55,29.99,10.0,SSE,11.5,-,N/A,,Clear,160,2013-07-25 22:35:00
5:55 PM,92.1,74.5,56,29.99,10.0,SSE,10.4,-,N/A,,Clear,160,2013-07-25 22:55:00
6:15 PM,91.0,74.7,59,29.99,10.0,South,13.8,-,N/A,,Clear,170,2013-07-25 23:15:00
6:35 PM,90.1,75.0,61,29.99,10.0,South,12.7,16.1,N/A,,Clear,170,2013-07-25 23:35:00
6:55 PM,89.4,75.6,63,30.00,10.0,South,12.7,-,N/A,,Clear,170,2013-07-25 23:55:00
7:15 PM,87.8,76.1,68,30.00,10.0,SSE,9.2,-,N/A,,Clear,150,2013-07-26 00:15:00
7:35 PM,86.9,76.1,70,30.00,10.0,South,9.2,-,N/A,,Clear,170,2013-07-26 00:35:00
7:55 PM,86.0,76.1,72,30.01,10.0,SSE,8.1,-,N/A,,Clear,150,2013-07-26 00:55:00
8:15 PM,84.7,76.3,76,30.00,10.0,South,8.1,-,N/A,,Clear,170,2013-07-26 01:15:00
8:35 PM,83.8,76.6,79,30.01,10.0,SSE,6.9,-,N/A,,Clear,160,2013-07-26 01:35:00
8:55 PM,82.9,77.2,83,30.01,10.0,SSE,5.8,-,N/A,,Clear,160,2013-07-26 01:55:00
9:15 PM,82.6,77.4,84,30.01,10.0,SSE,5.8,-,N/A,,Clear,160,2013-07-26 02:15:00
9:35 PM,82.0,77.4,86,30.01,10.0,SSE,5.8,-,N/A,,Clear,160,2013-07-26 02:35:00
9:55 PM,81.7,77.5,87,30.01,10.0,South,6.9,-,N/A,,Clear,170,2013-07-26 02:55:00
10:15 PM,81.0,79.7,96,30.01,10.0,South,6.9,-,N/A,,Clear,170,2013-07-26 03:15:00
10:35 PM,80.6,80.6,100,30.01,10.0,SSE,4.6,-,N/A,,Clear,160,2013-07-26 03:35:00
10:55 PM,80.6,80.6,100,30.02,10.0,South,4.6,-,N/A,,Clear,170,2013-07-26 03:55:00
11:15 PM,80.2,80.2,100,30.03,10.0,Calm,Calm,-,N/A,,Clear,0,2013-07-26 04:15:00
11:35 PM,79.9,79.9,100,30.03,10.0,Calm,Calm,-,N/A,,Clear,0,2013-07-26 04:35:00
11:55 PM,79.5,79.5,100,30.03,10.0,South,4.6,-,N/A,,Clear,190,2013-07-26 04:55:00